TimeCST,TemperatureF,Dew PointF,Humidity,Sea Level PressureIn,VisibilityMPH,Wind Direction,Wind SpeedMPH,Gust SpeedMPH,PrecipitationIn,Events,Conditions,WindDirDegrees,DateUTC
12:00 AM,81,78,90,29.90,12,Calm,Calm,,,,,,2011-10-07 06:00:00
12:00 AM,80.6,78.8,94,29.89,6.2,Calm,Calm,-,N/A,,Mostly Cloudy,0,2011-10-07 06:00:00
3:00 AM,78,76,91,29.89,12,North,8.1,,,,Mostly Cloudy,10,2011-10-07 09:00:00
3:00 AM,77.0,75.2,94,29.88,6.2,North,8.1,-,N/A,,Mostly Cloudy,10,2011-10-07 09:00:00
6:00 AM,75,74,94,29.90,12,WNW,3.5,,,,Partly Cloudy,300,2011-10-07 12:00:00
6:00 AM,75.2,73.4,94,29.90,6.2,WNW,3.5,-,N/A,,Mostly Cloudy,300,2011-10-07 12:00:00
7:00 AM,75.2,75.2,100,29.91,6.2,Calm,Calm,-,N/A,,Mostly Cloudy,0,2011-10-07 13:00:00
8:00 AM,78.8,75.2,89,29.93,6.2,NW,5.8,-,N/A,,Mostly Cloudy,310,2011-10-07 14:00:00
9:00 AM,80,76,83,29.94,12,West,3.5,,,,Scattered Clouds,280,2011-10-07 15:00:00
9:00 AM,80.6,75.2,84,29.93,6.2,West,3.5,-,N/A,,Scattered Clouds,280,2011-10-07 15:00:00
11:00 AM,86.0,77.0,74,29.90,6.2,East,9.2,-,N/A,,Scattered Clouds,80,2011-10-07 17:00:00
12:00 PM,82,76,77,29.89,11,NE,8.1,,,,,50,2011-10-07 18:00:00
12:00 PM,82.4,75.2,79,29.88,6.2,NE,8.1,-,N/A,,Mostly Cloudy,50,2011-10-07 18:00:00
2:00 PM,86.0,77.0,74,29.84,6.2,ENE,9.2,-,N/A,,Mostly Cloudy,60,2011-10-07 20:00:00
3:00 PM,85,76,68,29.84,12,ENE,9.2,,,,Partly Cloudy,60,2011-10-07 21:00:00
3:00 PM,86.0,77.0,74,29.83,6.2,ENE,9.2,-,N/A,,Mostly Cloudy,60,2011-10-07 21:00:00
4:00 PM,86.0,77.0,74,29.83,6.2,NE,6.9,-,N/A,,Mostly Cloudy,50,2011-10-07 22:00:00
5:00 PM,82.4,77.0,84,29.85,6.2,SE,6.9,-,N/A,,Mostly Cloudy,140,2011-10-07 23:00:00
6:00 PM,79,76,89,29.88,9,South,5.8,,,,Mostly Cloudy,190,2011-10-08 00:00:00
6:00 PM,78.8,77.0,94,29.88,6.2,South,5.8,-,N/A,,Mostly Cloudy,190,2011-10-08 00:00:00
9:00 PM,77,75,92,29.90,12,WSW,3.5,,,,Partly Cloudy,240,2011-10-08 03:00:00
9:00 PM,77.0,75.2,94,29.90,6.2,WSW,3.5,-,N/A,,Mostly Cloudy,240,2011-10-08 03:00:00